User: anonymous   Login
Location: Piotrkow Trybunalski
(51.4000°N, 19.6830°E)
Time: 18:44:20
(UTC+02:00)
Language:

Explorer 7 - Orbit

View from above orbital plane
View from above orbital plane
View from above satellite
View from above satellite

Ground track
Ground track

The orbit data is extracted from the following two-line orbital elements,

1 00022U 59009A   24206.89153601  .00010618  00000-0  60376-3 0  9995
2 00022  50.2769 232.5845 0110667 256.4802 102.3800 15.08267678695095
Epoch (UTC): 24 July 2024 21:23:48
Eccentricity: 0.0110667
inclination: 50.2769°
perigee height: 465 km
apogee height: 618 km
right ascension of ascending node: 232.5845°
argument of perigee: 256.4802°
revolutions per day: 15.08267678
mean anomaly at epoch: 102.3800°
orbit number at epoch: 69509

The dashed part of the orbit path shows where the satellite is in the earth's shadow,  

DLR